Dewpoint
56 55 54 54 54 54 54 54 54 54 54 54 54 54 54 54 54 54 54 54 54 54 54 54 54 53 53 53 54 54 54 54 55 55 55 55 55 55 56 56 56 55 55 55 55 55 56 56 56 57 57 58 58 59 59 60 61 61 62 63 63 63 63 64 64 64 64 63 63 63 63 63 62 61 60 60 60 59 59 59 59 59 59 59 59 60
58 57 55 54 54 54 54 54 55 54 54 55 55 55 55 54 54 55 55 55 54 54 54 54 54 54 54 54 54 54 54 54 54 54 55 55 55 55 55 55 55 55 55 55 55 55 55 55 56 56 57 57 57 58 58 59 59 60 61 61 62 63 63 63 63 64 64 63 63 63 63 62 61 61 60 60 60 60 60 60 60 60 60 60 60 60
58 58 57 56 55 54 54 54 55 55 55 55 55 55 55 55 54 54 55 56 56 56 56 55 54 54 54 54 54 54 54 54 54 54 54 54 54 54 54 54 54 55 55 55 55 55 55 55 55 55 56 56 56 57 57 58 58 59 59 59 60 61 62 62 63 63 63 63 63 62 62 61 60 60 60 60 60 60 60 60 60 60 60 60 60 61
55 57 58 58 57 56 55 54 55 55 56 56 56 56 55 55 55 55 55 56 56 57 57 56 56 55 54 55 55 54 54 54 54 54 54 54 54 54 54 54 54 54 54 54 54 54 54 55 55 55 55 55 56 56 56 56 57 57 57 58 59 59 59 60 61 61 61 61 61 61 60 60 60 60 60 60 60 60 60 60 60 60 60 60 61 61
51 53 55 57 58 58 57 56 56 55 55 56 56 56 56 56 56 55 55 56 56 56 57 57 57 56 55 55 55 55 54 54 54 54 54 54 54 54 54 54 54 54 54 54 54 54 54 54 54 54 55 55 55 55 55 55 55 56 56 56 57 57 58 59 59 59 59 60 60 60 59 59 59 59 60 60 60 60 60 60 60 60 60 61 61 61
46 48 51 53 55 57 58 58 57 56 56 56 56 56 57 57 56 56 56 56 56 56 56 56 57 57 56 56 55 55 54 54 54 54 54 54 54 54 54 54 54 54 54 54 54 54 54 54 54 54 54 54 54 54 54 54 55 55 55 55 56 56 57 57 58 58 59 59 59 59 59 59 59 59 59 59 60 60 60 61 61 61 61 61 61 61
44 45 47 49 51 54 56 57 57 57 56 56 56 56 57 57 57 57 57 56 56 56 56 56 56 57 57 56 55 55 55 54 54 54 54 54 54 54 54 54 54 54 54 54 54 54 54 54 54 54 54 54 54 54 54 54 54 54 54 55 55 55 56 56 57 57 57 58 58 59 59 59 59 59 59 59 59 59 60 60 61 61 61 61 61 61
43 44 45 46 47 50 52 54 56 57 57 56 56 55 56 56 56 57 57 57 57 56 56 55 56 56 57 57 57 56 56 55 55 54 54 54 54 54 54 54 54 54 54 54 54 54 54 54 54 54 54 54 54 54 54 54 54 54 54 54 54 54 55 55 56 56 57 57 57 58 58 58 58 58 58 58 59 59 59 60 60 61 61 61 61 61
42 43 43 44 45 46 48 50 52 54 55 56 56 55 55 55 55 56 56 56 56 56 56 55 55 55 56 57 57 57 56 56 55 55 55 55 54 54 54 54 54 54 54 54 54 53 53 53 53 53 53 54 54 54 54 54 53 53 54 54 54 54 54 55 55 55 56 56 57 57 58 58 58 58 58 58 58 58 58 59 60 60 61 61 62 62
41 42 42 44 45 45 46 46 47 49 51 54 55 56 55 55 55 55 55 55 56 56 56 55 55 55 55 56 57 57 56 56 55 55 55 54 54 54 54 54 54 54 53 53 53 53 53 53 53 53 53 53 53 53 53 53 53 53 53 53 53 54 54 54 54 55 55 56 56 57 57 57 58 58 58 58 57 57 57 58 59 59 60 61 62 62
41 41 42 43 44 45 45 45 46 47 49 50 53 54 55 54 54 54 54 54 54 55 56 55 55 54 54 55 56 56 56 56 56 55 55 54 54 54 53 53 53 53 53 53 53 53 53 53 53 53 53 53 53 53 53 52 52 52 52 53 53 53 53 54 54 54 55 55 55 56 56 57 57 57 57 57 57 57 57 57 57 58 59 60 61 61
40 41 41 41 42 43 44 45 46 47 47 46 46 47 48 48 49 49 49 51 53 54 55 56 56 55 55 54 54 55 55 55 55 56 56 55 55 54 54 54 54 53 54 53 53 53 53 52 52 53 53 53 53 53 52 52 52 52 52 52 52 53 53 53 54 54 54 54 55 55 56 56 56 57 57 57 57 56 56 56 56 57 58 59 59 60
40 40 41 41 41 42 43 44 45 45 44 43 41 41 41 43 44 44 45 46 48 50 52 54 55 56 56 55 55 55 55 55 55 55 56 56 56 56 55 55 54 54 54 54 54 54 53 53 52 52 53 53 52 52 52 52 52 52 52 52 52 52 52 53 53 53 54 54 54 55 55 55 56 56 56 56 56 56 56 56 56 56 57 57 59 59
39 39 40 40 40 41 42 43 44 44 41 41 41 41 41 42 43 44 44 44 45 46 47 49 52 54 56 56 56 55 55 55 55 55 55 56 56 56 56 56 55 55 55 55 54 54 54 54 54 53 53 53 52 52 52 52 51 51 52 52 52 52 52 52 53 53 53 54 54 54 54 55 55 55 56 56 56 56 56 56 56 56 56 57 57 59
37 38 38 38 39 40 41 43 42 41 40 40 41 41 41 42 42 43 43 43 43 44 45 45 48 51 55 56 56 56 56 56 56 56 56 56 56 57 57 56 56 55 55 55 55 55 55 54 54 54 54 54 53 53 53 52 52 52 52 52 52 52 52 52 52 53 53 53 54 54 54 54 54 55 55 55 56 56 55 55 55 55 56 56 57 57
36 36 36 37 38 39 41 41 40 39 38 39 40 40 40 40 41 41 41 41 42 42 43 43 44 47 51 54 54 53 53 53 54 55 56 56 56 57 57 57 56 56 56 55 55 55 56 56 56 55 55 54 53 53 52 53 53 52 52 52 52 52 52 52 52 52 53 53 53 53 54 54 54 54 54 55 55 55 55 55 55 55 55 56 56 56
36 36 36 36 36 37 37 38 38 37 37 38 38 39 39 40 40 41 41 41 41 41 41 41 41 43 45 49 50 49 47 47 48 49 52 54 55 56 57 57 56 56 56 56 56 56 56 56 56 56 56 54 54 53 52 53 53 53 52 52 52 52 52 52 52 52 52 53 53 53 53 53 54 54 54 54 54 54 55 55 55 55 55 55 55 56
35 35 35 35 35 34 35 36 36 36 36 36 37 38 38 39 40 40 40 40 40 40 40 40 41 41 42 44 46 48 47 46 46 46 47 50 53 55 56 57 57 56 56 56 56 56 56 56 56 56 56 54 54 53 53 53 53 53 53 53 52 52 52 52 52 52 52 53 53 53 53 53 53 53 53 54 54 54 54 54 54 54 55 55 55 55
33 34 34 33 33 33 33 34 35 35 36 36 36 36 37 38 39 39 39 39 39 39 39 39 40 41 41 42 44 45 47 46 46 46 46 48 50 52 52 55 56 56 56 56 56 56 57 57 56 55 54 54 54 53 53 53 53 53 53 53 53 52 52 52 52 52 53 53 53 53 53 53 53 53 53 53 53 53 54 54 54 54 54 55 55 55
32 33 33 33 32 32 33 34 35 35 35 36 36 36 35 36 37 37 38 38 39 39 39 39 39 40 41 41 42 44 45 46 46 46 46 48 47 45 45 51 54 55 56 56 56 57 57 57 56 55 54 54 54 53 53 53 53 53 53 53 53 52 52 52 52 52 53 53 53 53 53 52 52 52 52 52 52 53 53 54 54 54 54 54 54 55
32 32 33 33 33 32 32 34 35 36 36 36 35 35 34 35 35 36 36 37 38 38 38 38 39 39 40 40 41 43 45 45 45 45 46 47 46 43 41 45 50 53 55 55 55 55 55 56 57 56 55 54 54 53 53 53 53 53 53 53 53 52 52 52 52 52 52 52 53 52 52 52 52 52 52 52 52 52 53 53 54 54 54 54 54 54
32 32 34 34 34 34 34 34 35 36 36 36 35 34 34 34 34 35 36 36 37 37 37 37 38 39 40 40 41 43 45 46 46 46 46 46 45 44 40 42 45 50 52 51 48 46 49 52 54 55 55 54 54 53 53 53 53 53 53 53 53 52 52 52 52 52 52 52 52 52 52 52 52 52 52 52 52 52 52 53 53 54 54 54 54 54
34 34 35 35 35 35 35 35 36 36 36 36 35 35 35 35 35 35 36 36 37 37 37 38 38 39 40 41 42 44 46 47 47 47 46 46 45 44 40 41 44 47 50 46 43 42 44 46 48 50 52 53 53 53 53 53 53 53 52 52 52 52 52 52 52 52 52 52 52 52 52 52 52 52 52 52 52 52 52 52 53 53 54 54 54 54
35 35 36 36 36 36 36 36 36 36 36 36 36 36 36 36 36 37 37 38 38 38 38 38 38 38 39 41 43 44 45 46 47 47 46 46 45 44 40 41 43 46 49 44 41 40 42 44 45 46 48 50 51 51 52 52 52 52 52 52 52 52 51 51 51 51 51 51 52 52 52 52 52 52 51 51 51 51 52 52 52 53 53 53 53 54
36 36 35 35 35 35 35 35 35 35 36 36 36 36 36 36 37 38 39 39 38 38 37 36 36 36 37 39 41 42 44 45 45 46 45 45 44 42 40 41 43 45 46 42 40 39 41 43 44 45 45 47 49 50 50 50 51 51 51 51 51 51 51 51 51 51 51 51 51 51 51 51 51 51 51 51 51 51 52 52 52 52 52 53 53 53
34 33 33 33 33 33 33 33 33 33 34 35 35 36 37 37 37 37 37 37 37 36 36 35 35 35 36 37 38 39 42 43 45 45 45 44 43 41 39 40 41 44 45 41 39 39 41 43 44 44 45 46 47 49 49 50 50 50 50 50 51 51 51 51 51 51 51 51 51 51 51 51 51 51 51 51 51 51 51 52 52 52 52 52 52 52
32 32 32 32 32 32 32 32 33 33 33 34 34 35 36 36 36 35 34 35 36 36 35 34 34 34 35 36 36 38 40 42 43 44 44 43 42 41 40 39 40 41 43 41 39 39 41 42 43 44 44 44 45 47 48 49 49 50 50 50 50 50 50 50 50 51 51 51 51 51 51 51 51 51 51 51 51 51 51 51 51 51 51 52 52 52
30 31 31 31 31 32 32 32 32 32 33 33 34 34 35 35 34 33 32 34 35 35 34 34 34 34 34 35 36 37 39 41 42 43 44 43 43 41 40 38 39 40 41 40 40 40 41 41 41 42 42 42 43 45 46 47 48 49 49 50 50 50 50 50 50 50 50 50 50 50 50 51 51 51 51 51 51 51 51 51 51 51 51 52 53 54
29 30 30 31 31 31 32 32 32 32 32 32 33 33 33 34 33 33 33 34 35 34 33 33 34 34 34 35 36 37 39 40 41 43 44 44 43 41 38 38 39 40 40 39 40 40 40 40 40 39 39 41 42 42 44 46 47 48 49 49 49 49 50 50 50 50 50 50 50 50 50 50 50 51 51 51 51 51 51 51 51 52 52 53 53 54
28 29 29 30 30 31 31 31 31 32 32 32 32 32 32 33 33 34 34 35 34 33 33 33 33 34 34 35 35 36 37 39 42 44 44 43 42 40 38 38 39 39 39 40 41 41 41 40 39 38 38 39 40 41 42 44 45 47 48 49 49 49 49 49 49 50 50 50 50 50 50 50 50 50 50 50 50 51 51 51 51 52 53 53 54 54
27 28 28 28 28 29 29 30 30 30 31 31 32 31 31 32 32 33 34 34 34 33 33 33 33 34 34 34 34 34 36 38 41 44 44 42 41 40 38 39 39 39 39 41 41 42 42 41 40 39 38 38 39 40 41 43 45 46 47 48 49 49 49 49 49 49 49 50 50 50 50 50 50 50 50 50 50 51 51 51 52 52 53 53 53 53
27 28 28 28 28 28 28 29 29 29 29 29 30 30 30 30 30 30 31 32 32 33 33 33 33 33 34 34 33 34 35 38 41 42 41 40 40 40 39 39 39 39 39 40 41 41 41 41 41 39 38 38 38 39 40 42 44 45 46 47 48 49 49 49 49 49 50 50 50 50 50 50 50 50 50 50 50 50 51 51 51 52 53 53 53 53
27 27 28 28 28 28 28 28 28 28 28 28 28 28 28 28 29 29 29 30 31 32 32 32 32 32 32 33 33 33 35 37 39 39 38 37 37 38 38 39 39 40 39 39 39 40 40 40 39 38 38 37 37 38 39 41 43 45 46 47 48 49 49 50 50 50 50 50 50 50 50 50 50 50 50 50 50 50 51 51 51 52 53 53 53 53
27 28 28 28 28 28 28 28 28 28 29 28 28 28 27 27 28 28 28 29 29 30 31 31 31 31 31 31 31 32 33 35 36 37 37 36 35 36 36 38 39 40 41 40 39 38 38 37 37 38 39 38 38 38 38 40 41 43 45 46 47 48 49 50 50 50 50 50 50 50 50 50 50 50 50 50 50 50 51 51 51 52 52 52 52 52
27 27 27 27 27 27 27 28 28 28 29 28 28 28 27 27 27 28 28 29 29 29 30 31 31 31 31 30 30 30 31 33 35 36 37 36 35 35 35 36 38 40 41 41 40 39 38 37 38 39 39 40 40 39 38 38 39 40 41 44 46 47 48 49 50 50 50 50 50 50 50 50 51 51 50 50 50 50 51 51 51 51 51 52 52 52
26 26 26 26 27 27 27 27 27 28 28 28 27 27 27 27 27 28 28 29 29 30 30 31 31 31 31 31 31 31 31 32 34 36 36 36 36 35 35 36 37 39 40 41 41 41 40 39 39 40 41 41 41 41 39 38 38 39 40 43 45 46 48 49 50 50 50 50 50 50 50 50 51 51 51 50 50 50 50 50 51 51 51 51 51 52
24 25 25 26 26 26 26 26 26 27 27 27 27 28 28 28 28 28 29 29 30 30 31 31 31 31 32 32 32 32 32 33 34 35 36 36 36 36 35 36 37 38 39 40 41 42 41 41 41 41 41 42 42 41 40 39 39 40 41 42 44 45 47 48 49 50 50 50 50 50 50 50 50 51 51 50 50 50 50 50 50 50 51 51 51 51
23 23 24 25 25 25 25 25 25 26 26 27 27 28 28 28 29 29 29 30 30 30 30 30 30 30 31 32 32 33 33 34 34 35 36 36 36 36 36 36 37 38 40 40 41 42 42 42 41 41 41 42 42 42 41 40 40 41 41 43 43 44 45 47 48 49 50 50 50 50 50 50 50 51 51 51 51 51 50 50 51 51 50 50 50 50
22 22 23 23 23 24 23 23 24 25 26 27 27 28 28 29 30 30 30 31 30 30 29 29 29 29 30 30 32 33 34 34 34 34 35 35 35 36 36 36 37 39 40 41 41 42 42 42 42 42 41 41 41 41 40 40 41 41 41 42 43 43 44 46 47 49 49 49 49 50 50 50 50 50 50 50 50 50 50 50 51 51 51 51 50 50
21 21 21 22 22 22 22 22 23 24 25 26 27 27 28 29 29 30 30 31 30 29 28 28 28 29 29 30 31 32 33 33 34 35 35 34 34 35 36 37 38 39 40 41 41 42 42 42 42 43 43 42 42 41 40 40 41 42 43 43 43 44 44 45 46 48 49 49 49 49 49 50 50 50 50 50 50 50 50 50 51 51 51 50 50 50
20 20 20 20 21 21 21 22 22 23 24 24 25 25 26 27 27 28 28 29 29 28 28 28 28 29 29 30 30 31 32 32 33 34 34 33 34 35 36 37 38 39 40 41 41 41 42 42 42 43 43 44 43 42 41 41 42 43 44 44 44 44 44 45 45 46 48 49 49 49 49 49 49 49 50 50 50 50 50 50 50 50 50 50 50 50
19 19 19 19 19 20 20 21 22 23 23 23 23 23 24 25 26 26 26 27 27 27 27 28 28 28 28 29 29 30 31 32 32 33 33 33 33 34 36 37 39 40 40 41 41 41 42 42 42 43 43 44 44 43 43 42 42 43 44 44 44 44 44 45 45 46 47 48 48 49 49 49 49 49 49 49 50 50 50 50 50 50 50 50 50 50
19 19 19 19 19 19 20 21 22 22 22 22 22 23 23 24 25 25 25 25 26 27 27 27 28 28 28 28 28 28 29 30 31 32 33 32 32 33 35 36 37 39 40 40 40 41 41 42 42 43 43 44 44 44 43 42 42 43 44 44 44 43 43 43 44 45 46 47 47 48 48 49 49 49 49 49 49 50 50 50 50 50 50 50 50 49
19 18 18 18 19 19 20 20 20 20 21 21 21 22 23 23 24 24 24 24 25 25 26 27 27 27 27 27 27 27 28 29 29 30 31 32 33 33 34 34 36 37 39 39 40 40 41 41 42 43 43 44 44 44 44 43 42 42 43 44 44 44 44 44 44 45 45 46 47 47 48 48 48 48 48 48 48 49 49 49 49 49 49 49 49 49
18 18 18 18 18 19 19 19 19 20 20 20 20 21 22 23 23 24 23 23 24 24 25 26 26 26 26 26 26 26 27 27 28 29 30 31 32 33 33 33 34 36 37 38 39 40 40 41 41 42 42 43 43 43 43 43 43 43 43 44 44 45 45 43 44 45 45 46 46 47 47 47 47 47 47 47 47 48 48 48 48 48 48 49 48 48
18 18 18 18 18 18 19 19 19 19 19 20 20 20 21 22 22 23 23 23 23 23 24 25 26 25 25 25 25 26 26 26 27 27 28 29 31 32 32 33 34 35 36 37 39 40 40 40 41 41 42 42 42 43 43 43 43 43 43 43 44 44 44 43 44 44 45 45 46 46 46 46 46 46 46 46 46 47 47 47 47 47 47 48 48 48
18 18 18 18 18 18 18 18 19 19 19 19 19 20 21 21 21 22 22 22 22 23 23 24 24 24 25 25 25 26 26 26 26 27 27 28 30 31 32 32 34 35 36 37 39 40 40 40 41 41 41 41 41 41 42 43 43 43 43 43 43 44 44 44 44 44 45 45 46 45 45 45 45 45 45 45 45 46 46 46 46 46 47 47 47 47
18 18 18 18 18 18 18 18 18 18 18 19 19 19 20 21 21 21 21 22 22 22 22 22 23 23 23 24 25 26 26 26 27 27 27 28 29 30 31 32 33 35 36 37 38 39 40 40 41 41 41 41 41 41 41 42 43 43 43 43 43 43 44 44 44 44 45 45 44 43 44 45 45 45 45 45 45 45 45 45 45 45 46 46 46 47
18 18 18 18 18 18 18 18 18 18 18 19 19 19 20 20 21 21 20 21 21 21 21 21 22 22 22 23 24 25 27 27 27 27 28 28 29 30 31 32 33 34 34 35 36 37 38 39 40 41 42 42 41 41 41 42 42 43 43 43 43 43 43 44 44 44 45 44 42 41 42 45 45 45 45 44 44 44 44 44 44 45 45 46 46 46
18 18 18 18 18 18 18 18 18 18 19 19 19 19 19 19 20 20 20 20 21 21 21 21 21 21 22 22 23 24 26 27 27 28 28 29 30 31 32 32 32 32 32 32 33 34 35 35 36 38 41 42 42 41 41 41 41 42 42 43 43 43 44 44 44 44 44 44 43 41 42 44 45 45 45 44 44 43 43 43 43 44 44 45 46 46
19 19 19 18 18 18 18 18 19 19 19 19 19 19 19 19 19 19 19 20 20 20 20 21 21 21 21 22 23 23 24 26 27 27 28 30 31 32 32 32 31 30 29 30 31 32 32 32 32 34 36 40 41 42 41 41 41 41 41 42 43 43 44 44 44 44 44 44 44 43 42 43 44 45 45 44 43 43 42 42 43 43 43 44 45 45